RH
80 81 83 84 78 71 67 69 74 75 79 80 79 79 79 81 81 80 80 77 74 79 85 86 85 82 81 82 85 82 79 81 81 85 87 82 80 75 71 72 71 72 74 73 72 73 71 64 63 67 66 65 65 61 56 53 52 55 59 61 68 77
76 79 83 80 80 78 66 69 77 74 75 76 75 75 76 78 79 78 76 75 77 85 91 90 88 86 82 82 86 84 86 89 84 82 81 78 76 72 70 71 69 70 72 71 71 75 73 65 65 68 66 66 65 59 53 52 53 56 60 63 73 86
74 80 84 79 78 79 72 75 80 76 74 74 74 75 77 76 76 76 73 78 81 82 90 89 87 91 87 84 85 82 85 89 85 80 78 76 72 68 69 69 68 71 69 69 78 82 78 73 69 69 69 67 62 56 52 51 51 54 62 68 80 93
75 81 84 78 76 76 74 75 76 75 74 77 80 79 82 78 72 72 74 85 89 83 89 92 91 93 90 87 86 80 82 90 88 80 78 78 73 66 67 67 66 70 71 74 83 80 77 78 74 73 70 64 59 56 53 51 51 55 65 75 85 96
77 81 83 78 76 73 70 71 71 71 73 79 84 82 85 84 77 78 80 84 92 90 91 95 90 89 90 86 84 80 82 88 87 82 78 78 76 67 66 69 67 70 73 76 80 78 75 73 72 70 65 60 59 56 53 53 57 59 71 84 90 95
78 78 81 78 76 73 71 75 73 76 81 81 82 85 87 83 81 90 90 86 92 92 88 91 85 84 89 84 82 82 80 80 79 81 77 74 75 70 68 70 67 69 71 69 72 77 72 65 68 66 58 59 58 55 55 57 63 64 73 85 91 94
77 77 78 78 78 77 78 82 80 81 85 86 86 91 93 84 85 96 95 88 90 90 87 88 83 82 84 80 78 76 75 75 73 76 74 70 71 70 68 65 61 63 66 63 66 74 69 66 73 65 54 56 56 56 57 60 67 67 69 79 87 91
77 77 77 81 81 78 82 84 85 84 80 88 90 88 92 89 90 97 96 90 85 86 85 84 83 80 79 78 76 73 71 71 68 70 71 68 66 66 64 60 58 59 61 58 61 72 72 69 68 60 54 56 56 57 59 62 66 68 69 79 88 88
78 78 78 83 81 77 85 86 87 89 83 87 86 83 88 87 89 96 98 90 82 83 82 83 84 78 80 81 77 74 71 70 68 68 70 66 61 62 63 60 59 59 57 53 58 67 68 65 57 53 54 54 55 59 61 64 66 70 73 83 91 86
79 81 82 82 81 79 90 91 83 85 89 90 86 89 92 86 90 95 94 87 80 83 82 83 82 76 80 79 76 75 72 72 72 71 72 68 63 63 64 63 60 57 51 51 58 62 63 62 53 49 53 52 54 59 61 63 65 71 76 83 91 87
81 82 84 83 82 84 94 94 81 80 93 97 90 93 94 91 94 90 88 87 82 84 84 86 84 77 78 74 73 76 72 71 72 74 75 72 69 65 64 62 58 55 50 50 57 60 61 61 54 52 54 52 54 58 60 61 65 71 77 84 88 88
84 85 88 87 86 89 96 95 85 84 96 100 94 95 93 90 93 90 91 90 88 91 86 86 85 77 74 71 71 75 75 75 76 78 76 73 72 68 66 63 59 57 52 51 58 62 62 62 60 58 58 57 55 57 59 61 66 71 76 82 85 86
89 93 92 88 89 93 96 95 92 90 94 98 96 97 96 89 88 92 93 89 91 96 88 84 84 77 72 70 71 75 77 79 82 83 79 76 73 71 69 66 65 62 57 53 60 66 65 67 67 61 63 61 58 58 58 59 66 73 77 81 83 82
91 95 94 83 85 95 96 94 93 90 93 97 96 96 99 96 89 88 90 89 88 87 83 79 76 75 73 74 78 80 81 83 84 84 84 81 76 71 66 67 67 64 61 54 59 69 65 68 69 64 66 61 58 61 58 58 64 72 79 82 82 80
91 93 95 81 81 94 94 91 90 91 94 95 93 92 95 97 91 89 90 91 87 81 83 81 75 77 79 81 84 83 84 85 82 81 84 83 76 69 65 67 65 63 65 59 64 72 65 69 73 69 69 64 63 65 61 61 66 73 79 80 80 81
93 93 94 87 86 91 92 92 90 90 93 91 92 93 94 96 94 93 89 89 92 88 91 93 85 81 82 83 83 83 84 82 81 81 82 82 76 68 65 67 68 69 70 71 78 75 67 74 76 71 72 70 69 67 64 64 68 76 79 78 79 81
92 94 94 92 90 91 92 92 87 87 91 94 94 90 91 93 93 93 88 89 97 93 90 95 90 81 80 81 80 84 88 83 83 85 83 81 74 67 68 72 78 78 71 74 80 75 73 76 75 76 75 73 73 73 72 72 75 79 80 84 83 80
90 94 96 92 87 91 95 90 87 89 92 94 88 82 85 90 92 93 88 88 95 92 89 94 91 82 78 79 81 85 88 85 83 86 84 79 72 68 73 77 80 82 76 74 78 79 79 75 74 79 77 76 81 81 80 79 81 79 79 88 86 77
91 91 94 91 84 90 98 95 94 95 94 94 86 83 89 94 98 93 86 87 89 88 91 94 88 83 83 82 82 86 88 86 83 85 83 76 74 73 77 81 82 84 81 75 78 83 81 77 79 82 81 83 84 83 82 81 81 80 81 87 87 83
95 93 93 93 88 91 98 95 95 93 92 95 90 88 90 91 95 89 84 90 88 85 93 96 90 87 88 83 78 81 85 88 85 82 82 77 73 76 82 86 86 87 85 79 80 83 82 82 85 88 88 87 86 86 86 84 82 82 85 84 82 84
95 94 93 92 91 92 93 88 86 85 86 92 90 89 88 85 89 87 86 91 89 87 93 96 95 91 86 78 74 74 75 86 89 79 78 79 75 80 85 85 86 88 87 89 90 88 87 84 86 91 92 93 94 92 88 86 87 87 86 81 77 79
91 89 88 87 88 91 90 85 80 78 82 89 88 89 89 86 88 87 84 86 86 87 88 90 94 91 82 74 72 71 72 84 91 80 76 81 82 83 85 83 84 85 84 91 93 90 91 88 86 87 86 90 93 92 88 86 88 84 79 78 76 76
88 85 88 86 86 91 90 86 83 82 86 89 88 90 88 87 90 87 82 83 84 86 86 87 88 83 77 72 67 69 75 83 86 81 78 82 82 82 84 81 80 82 84 90 92 90 89 85 85 86 80 80 82 82 85 87 86 81 76 76 71 70
88 86 90 87 86 91 92 88 86 85 87 86 86 89 87 87 91 89 87 85 81 84 89 89 85 81 77 72 70 75 82 84 81 80 79 80 80 79 82 81 78 81 82 86 93 92 87 79 79 83 75 71 74 72 75 80 82 80 75 70 63 65
90 85 87 88 87 91 92 89 88 88 91 88 87 90 91 92 93 92 94 90 81 80 84 84 82 82 80 79 82 86 86 83 81 81 80 78 77 76 78 79 79 81 79 85 93 91 89 83 76 78 74 70 74 70 67 70 72 75 72 63 61 65
90 84 86 90 89 91 89 88 93 91 89 91 91 88 87 88 90 88 89 89 84 79 79 81 81 80 82 84 86 89 87 83 82 85 84 80 77 75 76 78 78 81 80 83 88 89 93 92 83 85 84 75 75 71 65 65 68 72 71 64 61 64
85 82 86 90 88 90 88 87 92 88 83 89 87 80 78 79 79 79 81 84 83 81 81 83 81 77 81 85 84 86 87 83 80 84 86 84 80 77 75 75 77 83 83 81 84 87 91 93 92 90 83 74 74 73 66 64 65 67 72 73 67 62
85 83 86 88 87 87 87 88 91 85 81 84 79 74 76 74 71 73 77 79 79 81 81 82 81 78 78 81 82 83 84 83 82 81 82 83 80 78 75 75 80 83 82 83 84 85 88 90 89 87 82 78 78 76 69 66 64 61 66 74 72 63
88 85 84 88 88 85 85 89 87 81 80 79 76 76 75 73 73 77 80 80 80 82 82 82 82 81 79 79 81 82 82 83 83 80 80 78 74 75 75 79 87 85 81 84 86 87 89 88 87 88 88 82 78 79 75 69 68 67 67 69 69 63
86 84 85 88 90 88 87 89 86 84 84 77 76 78 73 72 76 79 82 81 79 77 76 77 78 80 81 80 82 83 82 82 83 83 80 75 71 73 77 82 87 87 84 87 91 92 91 90 88 86 84 79 77 84 84 79 79 80 80 74 62 55
83 85 88 87 89 91 87 86 86 83 79 75 75 73 68 70 73 74 76 75 74 72 71 72 74 76 77 78 82 85 83 82 83 85 82 76 72 73 77 81 86 89 85 81 87 92 91 90 84 79 85 84 77 80 83 85 85 81 85 81 60 49
83 85 89 85 87 92 87 85 86 79 75 78 76 68 66 70 70 69 69 68 71 72 71 72 73 73 73 75 79 83 86 85 83 85 83 77 75 74 76 78 81 86 84 81 86 89 87 85 79 79 88 87 78 78 82 85 84 77 78 78 60 48
84 85 87 85 87 90 86 83 82 78 80 81 73 66 68 69 65 63 62 64 68 69 70 71 69 70 73 73 73 77 83 86 85 86 84 79 77 74 75 77 77 79 81 85 89 89 88 85 81 82 85 83 80 79 79 82 81 70 67 70 60 48
82 85 85 82 82 82 80 79 78 77 80 75 66 64 65 64 63 61 60 63 65 64 64 65 64 66 69 69 69 72 76 80 83 86 85 83 81 77 76 75 73 76 78 83 87 87 88 87 84 83 84 86 86 78 73 73 71 62 62 69 63 49
79 84 83 79 75 73 73 75 75 74 73 67 62 61 60 60 63 63 61 61 60 59 59 60 62 65 67 65 66 70 73 73 77 83 84 85 82 79 80 77 74 79 79 80 84 84 85 88 88 87 87 90 88 80 75 73 68 62 63 69 62 48
79 80 77 74 72 70 70 73 73 72 68 63 60 60 60 60 62 62 60 59 59 60 61 63 66 68 66 64 64 66 66 67 72 77 82 86 83 80 84 81 77 83 82 77 81 82 81 85 90 93 93 89 85 82 77 75 71 63 63 67 59 48
77 74 69 69 71 69 71 74 71 68 65 62 60 61 62 62 62 61 60 61 63 64 65 67 69 69 66 65 64 61 57 60 69 73 75 80 81 80 84 82 79 84 84 79 78 78 77 79 84 91 90 81 81 83 75 73 74 66 64 66 56 47
Wind_Speed
20 21 19 19 19 19 20 21 20 20 20 18 17 16 16 16 17 16 16 16 16 15 15 16 14 13 13 13 15 15 14 14 13 12 10 9 9 10 11 9 7 7 8 9 9 8 8 11 14 15 14 13 12 10 8 9 11 11 12 13 13 13
20 20 19 18 18 18 19 19 17 17 17 17 16 16 15 15 16 15 15 15 16 16 14 15 15 13 13 14 14 14 13 13 13 12 11 11 10 11 12 9 8 7 7 10 10 9 8 10 12 14 13 12 10 7 7 9 10 11 12 12 12 12
20 20 19 17 17 17 19 18 17 17 17 16 16 15 15 15 15 15 16 15 15 17 15 14 15 14 14 14 13 13 13 13 12 12 11 11 11 11 11 10 9 7 7 10 11 10 8 8 10 11 11 9 8 7 7 8 9 10 10 11 11 10
20 21 18 17 17 17 18 17 16 16 17 16 16 15 14 14 15 15 15 14 13 15 16 15 15 15 14 14 13 12 13 12 11 11 11 11 11 11 11 11 10 9 9 10 11 11 9 8 7 5 5 7 8 8 7 8 9 10 11 11 10 9
20 22 18 17 17 16 17 16 15 16 16 15 15 15 14 14 16 15 15 14 13 15 17 15 16 16 14 14 13 13 12 12 10 10 10 10 10 12 11 10 11 11 10 9 10 11 11 10 7 5 5 8 8 8 8 8 10 11 10 9 9 9
20 22 19 18 16 16 16 13 14 15 14 14 13 12 13 16 17 14 14 14 14 16 17 16 16 16 15 14 14 14 12 11 11 11 10 10 10 12 11 10 11 11 10 9 9 11 11 11 10 9 8 8 8 8 9 9 10 11 10 9 9 8
20 20 18 16 14 15 15 11 13 14 14 13 12 11 11 14 14 12 12 15 16 17 17 16 16 15 15 16 14 12 12 11 11 11 10 10 11 12 11 11 11 11 10 9 10 11 12 13 13 10 9 8 8 8 9 10 10 11 11 10 9 9
19 19 16 14 13 14 13 11 12 15 15 13 12 13 11 10 12 12 12 15 18 17 17 17 16 15 14 14 12 10 10 10 10 10 9 9 10 11 11 11 11 10 10 9 10 12 13 13 11 10 9 8 8 8 9 10 11 12 12 11 10 10
17 16 15 14 14 12 11 11 12 14 15 13 13 13 12 13 14 11 12 16 18 17 19 17 15 14 12 12 11 10 9 9 9 9 9 9 9 10 10 10 10 10 10 10 10 9 10 10 9 9 9 9 8 8 9 10 11 12 13 11 10 11
16 15 15 15 14 10 10 11 12 14 13 12 14 12 11 14 15 13 15 18 18 17 18 16 14 12 11 12 11 10 9 8 8 8 8 8 8 9 9 9 9 10 11 11 11 10 9 9 9 8 9 9 8 8 9 9 10 14 14 11 11 11
16 16 15 13 11 10 9 11 13 16 13 12 14 12 11 14 16 17 19 19 19 18 17 15 14 12 11 11 11 9 9 8 8 7 7 7 7 8 8 8 9 11 11 10 11 11 10 10 8 8 9 9 9 8 8 8 9 13 14 12 12 11
14 14 12 12 12 12 9 10 12 14 11 11 13 12 12 15 17 18 19 19 18 16 15 14 12 12 11 9 9 9 8 8 8 7 7 8 8 8 8 9 10 10 10 9 9 10 10 10 8 8 9 8 9 8 8 8 9 12 13 13 13 12
13 11 10 13 13 11 9 8 11 12 11 11 11 12 13 17 17 16 18 19 17 14 14 15 13 13 11 9 9 9 8 8 8 8 8 8 8 8 9 9 9 8 8 8 8 9 11 8 7 10 9 8 9 8 8 8 9 13 13 13 13 12
14 9 8 12 14 11 10 10 11 11 12 11 11 12 13 17 19 18 19 18 17 16 17 17 17 14 11 10 9 9 9 8 8 9 8 8 8 8 8 8 9 9 8 9 8 9 11 9 8 11 8 7 9 7 8 8 9 13 12 11 13 12
12 10 8 12 14 10 10 11 11 10 10 10 10 10 12 17 20 19 18 18 17 17 17 16 17 15 12 11 10 9 9 9 9 9 8 8 9 9 8 9 9 9 9 9 7 10 12 11 10 11 8 6 8 6 7 7 8 12 11 9 10 10
11 12 12 13 12 8 10 11 11 9 9 8 8 9 11 13 15 18 19 18 16 15 15 14 15 15 14 12 11 11 10 10 10 9 8 8 9 9 9 9 7 8 10 6 5 10 11 11 10 9 7 6 7 6 7 7 7 11 10 8 8 8
11 12 12 13 12 10 12 13 11 10 8 7 8 8 9 9 11 15 18 17 15 14 14 13 14 14 14 14 13 11 10 10 11 10 9 9 9 9 9 8 7 8 10 7 7 10 11 10 8 7 7 7 7 6 6 6 6 9 9 8 7 7
12 11 12 13 14 12 14 15 12 10 9 8 7 6 7 9 9 13 15 16 15 14 13 12 13 13 13 12 11 10 9 9 10 10 10 9 9 10 9 8 8 8 9 10 10 11 10 9 9 9 8 7 7 7 7 8 6 7 8 8 7 8
12 13 14 14 16 15 13 15 12 10 10 8 7 6 7 9 9 12 14 14 14 14 12 12 13 12 12 12 11 9 8 8 10 10 10 10 8 9 9 7 9 10 8 10 12 13 11 9 9 10 8 8 9 10 10 9 7 7 8 8 8 8
12 12 14 16 17 16 12 13 12 11 11 9 7 7 8 10 11 13 14 13 14 13 11 11 11 11 11 13 13 10 7 8 11 11 10 10 9 10 9 8 9 12 12 11 13 13 11 10 10 12 12 12 11 11 9 9 8 7 7 8 8 8
12 12 12 15 17 16 12 13 13 11 11 9 8 7 9 11 12 13 14 15 15 13 11 10 10 10 11 12 11 9 8 10 11 11 10 8 8 9 8 9 9 12 14 13 12 11 10 11 13 13 12 11 10 9 8 9 8 6 7 8 8 7
13 13 12 14 16 16 12 11 11 10 10 8 8 8 9 12 13 12 13 15 14 12 11 10 10 10 11 12 11 9 10 12 11 9 9 7 7 7 8 9 9 10 12 11 12 13 12 11 10 10 12 10 8 8 8 8 8 7 8 7 6 6
14 15 14 13 14 14 12 11 9 8 8 8 9 9 9 12 14 14 14 15 15 13 12 12 11 9 11 13 12 11 12 12 11 9 8 8 8 9 8 8 8 9 11 10 10 14 15 12 11 12 12 8 5 6 6 6 6 8 9 7 6 6
14 14 15 14 13 13 13 12 11 9 8 10 11 10 9 11 14 15 14 14 13 14 14 13 12 10 9 12 12 12 13 12 11 9 9 9 9 9 9 8 8 7 11 10 8 12 15 15 17 13 8 6 6 6 5 5 7 8 8 7 6 6
12 13 15 14 13 13 13 13 11 9 8 10 11 12 13 14 14 16 16 15 13 13 13 11 11 11 10 11 12 11 11 11 9 7 8 9 8 9 8 8 9 7 8 11 10 10 11 15 19 10 3 5 5 3 4 7 9 7 7 7 7 6
12 13 16 14 14 15 14 12 11 11 11 9 9 12 16 18 18 18 17 17 14 12 12 11 10 12 12 13 14 12 11 11 9 7 8 8 8 9 8 7 10 9 7 10 13 13 10 12 15 7 1 3 0 1 6 10 7 4 5 7 7 7
13 13 15 15 15 16 15 14 12 11 12 10 9 11 13 16 17 16 15 14 13 12 12 12 11 11 11 12 13 12 11 10 8 8 8 7 8 8 8 7 8 8 8 10 13 14 13 12 12 8 5 3 2 2 8 9 6 5 6 5 6 7
13 13 14 15 16 17 16 15 14 12 11 9 9 11 12 13 12 12 12 11 11 11 12 11 11 11 11 10 10 10 10 9 8 9 8 8 8 7 7 7 6 8 9 11 11 13 13 12 11 8 6 4 2 2 7 8 6 7 7 5 5 7
14 13 14 16 17 17 16 15 14 12 11 12 12 12 12 11 10 10 10 10 10 10 10 10 10 10 10 10 9 10 10 10 9 9 8 8 8 7 6 6 7 7 7 10 12 11 11 12 12 9 6 5 3 2 4 6 5 3 4 6 6 6
16 15 16 17 17 17 16 14 14 13 12 13 14 13 12 11 10 10 10 10 9 9 9 9 9 9 9 9 9 9 10 10 9 9 8 8 7 7 6 5 7 6 6 9 10 9 10 12 12 10 7 6 5 4 4 4 2 1 1 5 7 7
16 16 16 18 18 17 17 16 15 15 13 13 14 14 12 11 11 10 9 9 8 8 7 8 8 8 8 8 9 8 8 9 9 8 8 7 7 7 7 6 6 7 8 8 8 8 10 10 12 13 11 8 7 9 8 4 3 5 4 4 5 8
18 18 17 19 20 17 17 17 16 15 14 14 15 14 12 11 11 10 9 8 7 7 7 6 7 6 6 7 8 8 7 8 8 7 7 7 7 7 7 7 7 8 10 8 7 8 10 12 13 13 12 10 8 9 9 9 10 9 8 7 6 8
20 20 19 20 21 19 17 17 16 15 15 16 15 12 11 11 10 9 9 8 7 7 7 6 6 5 6 6 6 6 7 7 6 7 7 6 6 6 6 7 6 7 8 8 7 7 9 15 14 11 11 10 9 8 9 11 13 12 14 12 8 8
20 20 20 21 23 23 21 18 17 16 16 15 13 12 11 10 10 9 9 8 7 7 6 6 5 5 5 4 4 4 5 5 5 5 6 6 5 5 6 6 6 5 6 7 7 6 6 12 12 9 10 10 9 9 8 8 9 12 16 12 8 10
20 20 21 22 24 24 22 20 19 18 16 14 12 12 12 11 10 10 9 8 7 6 6 5 5 5 4 4 3 3 3 4 4 4 5 6 6 6 5 5 5 6 5 5 6 6 4 7 10 10 10 10 9 9 8 6 6 10 14 10 9 12
20 21 22 22 22 22 20 18 17 17 15 14 13 12 12 12 11 10 10 9 8 7 7 6 6 5 4 3 2 2 3 3 3 4 4 5 6 5 6 5 5 6 6 6 5 6 5 5 7 9 10 9 8 8 9 8 7 11 13 9 9 12
21 21 21 21 21 20 19 17 16 16 14 13 13 12 12 13 12 12 11 10 9 8 8 7 7 6 4 3 2 2 3 3 3 3 4 5 5 5 6 5 5 6 7 6 5 6 5 4 5 7 7 9 8 8 10 10 10 11 12 12 12 13
Wind_Direction
167 166 163 163 165 168 173 171 170 173 173 174 174 175 174 174 173 171 170 169 169 170 170 164 163 165 160 160 160 161 165 167 172 173 167 165 167 162 153 144 142 140 145 157 151 137 128 117 108 100 96 91 80 72 82 94 92 90 90 92 94 94
169 168 166 164 164 168 174 171 168 172 174 176 175 174 174 173 172 171 173 173 173 172 165 158 162 163 160 163 160 157 159 161 162 168 169 167 174 167 154 152 154 149 150 159 152 146 140 124 113 104 99 92 85 90 100 100 98 93 90 94 97 92
169 169 167 164 165 168 171 170 169 171 172 175 175 174 172 174 175 172 173 173 175 175 164 158 164 161 157 159 156 155 159 162 162 168 172 169 171 168 160 157 161 164 160 161 159 156 151 139 123 103 94 90 96 116 111 103 104 97 93 97 100 99
171 169 168 167 169 168 168 170 168 169 172 173 175 175 173 178 180 174 169 164 165 170 165 157 160 159 152 151 148 151 157 156 162 172 172 166 168 172 167 162 166 172 166 164 166 163 159 160 156 128 107 110 120 126 119 110 106 103 100 101 103 103
172 173 171 171 172 168 168 169 168 169 167 169 174 175 177 185 184 172 166 168 163 163 164 154 156 158 149 150 149 150 155 152 159 170 165 164 172 176 173 173 175 175 176 174 172 172 169 167 171 173 151 130 131 131 121 111 106 111 108 107 114 108
175 177 173 172 173 169 170 166 164 167 163 166 175 177 184 192 185 166 162 172 165 160 164 158 158 161 151 154 157 155 158 154 159 166 165 170 174 177 179 184 186 187 194 192 187 184 175 177 184 172 153 139 136 132 125 116 112 118 116 117 118 108
177 177 174 176 175 169 176 171 160 168 168 165 172 177 182 189 186 173 166 165 161 161 165 162 160 161 157 161 165 163 160 157 161 165 171 176 174 180 187 191 195 199 202 200 200 189 177 193 197 171 146 144 139 134 129 126 125 122 119 123 120 110
176 179 179 177 177 173 180 177 162 174 181 171 170 179 179 187 189 178 164 157 159 161 161 161 161 163 163 166 168 164 160 159 161 164 172 177 176 180 191 198 197 201 204 205 203 186 183 198 191 156 143 144 138 137 132 129 132 127 118 123 123 114
179 181 180 177 180 179 178 177 171 177 182 174 172 180 183 194 195 173 154 158 161 158 161 165 163 165 172 171 164 158 159 159 158 162 172 179 180 177 190 199 195 200 207 210 205 189 187 190 174 153 149 145 142 139 133 134 138 131 121 124 126 117
184 181 181 180 177 182 176 172 186 185 173 169 174 176 182 192 193 179 164 165 168 163 164 169 167 170 177 169 157 156 157 156 159 164 171 177 177 178 188 194 193 202 206 205 199 192 184 172 170 164 154 150 147 143 137 141 141 132 127 127 128 121
194 183 175 173 176 196 175 147 178 187 167 161 169 167 174 180 178 177 170 166 170 167 162 168 177 176 171 164 156 156 155 156 161 162 169 173 177 181 186 191 197 207 211 203 185 182 180 171 172 163 158 156 148 149 144 139 135 134 136 132 128 123
206 195 168 165 187 201 175 141 167 179 161 153 160 161 166 168 167 168 168 167 166 166 160 161 171 169 163 162 157 154 153 156 159 163 171 172 180 184 187 197 205 211 214 203 170 164 176 174 172 162 156 153 149 153 147 141 134 132 135 132 129 125
207 214 168 168 196 196 180 166 164 171 171 160 157 165 162 161 165 164 168 168 161 162 165 161 160 159 162 164 156 155 157 158 159 164 171 172 177 184 191 195 200 203 204 197 167 157 168 156 152 166 159 151 154 153 150 150 136 127 129 130 133 131
196 211 166 177 203 192 180 183 175 173 175 167 162 169 158 153 162 164 167 166 160 163 168 168 164 156 160 164 158 158 159 161 167 170 174 177 177 184 189 184 187 188 191 196 172 157 167 146 140 164 163 156 155 151 152 150 135 129 127 127 134 135
183 189 172 190 205 188 174 182 186 174 165 168 166 169 159 151 157 161 163 161 161 167 169 171 167 160 162 166 161 162 166 169 178 180 178 179 183 188 183 180 189 179 183 202 166 151 166 154 153 164 156 150 149 150 155 149 133 126 125 128 131 133
178 176 167 182 193 186 177 175 181 172 164 168 162 167 161 152 155 157 162 161 161 170 170 168 169 167 166 168 167 167 176 183 187 189 186 186 192 194 181 182 191 167 177 202 138 145 164 156 154 156 148 146 145 155 155 149 135 121 124 132 129 133
180 170 163 172 174 179 181 176 181 175 170 175 171 175 163 159 161 158 163 166 167 171 170 167 169 173 170 173 176 173 182 191 192 197 197 191 194 192 181 184 186 168 187 199 141 146 162 157 151 149 152 151 146 152 137 124 128 127 133 134 134 143
179 170 163 173 182 186 178 174 181 177 178 187 185 185 167 169 175 168 170 173 171 169 171 172 169 173 174 176 180 182 188 192 194 202 198 192 198 192 184 194 189 175 198 198 162 149 156 164 167 163 158 150 142 142 129 116 124 145 147 135 135 139
174 173 162 170 192 196 178 171 175 174 183 187 182 186 175 172 175 177 177 175 173 169 175 177 170 173 177 178 183 189 192 192 198 203 198 195 197 192 186 197 186 170 189 197 173 155 157 173 173 155 139 139 138 134 138 136 141 158 146 131 139 144
180 183 165 165 187 197 185 177 177 176 182 184 185 188 186 183 179 179 175 172 175 174 179 177 171 179 186 186 187 190 196 205 208 202 201 200 193 192 188 187 178 163 166 179 177 166 165 165 142 121 120 132 133 130 139 137 141 152 137 134 149 150
190 191 174 166 179 191 189 182 184 187 184 184 187 183 191 192 184 178 172 173 176 173 178 174 171 182 186 188 189 195 211 220 219 204 198 204 196 195 191 188 182 166 162 164 171 176 166 149 131 117 119 124 120 122 134 134 136 149 150 149 148 139
190 189 180 172 173 180 185 183 188 194 190 186 184 177 184 187 181 177 172 176 178 170 177 179 178 183 176 180 191 203 215 222 228 213 195 197 195 197 197 192 184 170 168 163 167 172 158 142 142 136 130 126 115 115 127 138 144 160 168 161 146 142
192 186 180 179 173 169 173 181 184 189 188 181 177 172 178 184 178 176 177 179 178 174 180 185 187 186 175 182 195 201 207 218 227 216 200 196 192 199 202 194 191 176 163 159 161 165 161 153 148 141 136 137 136 132 134 143 154 161 165 163 154 153
192 179 174 184 179 162 162 175 181 182 182 180 177 165 170 186 175 170 177 182 183 182 182 187 190 185 181 189 198 200 201 213 222 214 206 204 198 202 203 191 198 189 158 163 172 161 164 165 155 145 139 139 145 156 151 144 153 155 160 162 149 140
187 168 162 175 179 165 161 169 173 172 174 180 179 163 166 182 176 172 180 183 185 184 180 186 188 185 194 197 198 204 207 209 212 213 215 213 203 204 210 192 192 199 164 164 175 161 162 167 162 157 135 135 146 172 160 144 144 148 160 153 129 123
180 165 155 164 174 171 170 173 170 167 168 172 171 165 173 181 179 181 186 180 174 175 177 182 183 186 194 195 194 199 204 204 200 208 220 219 210 204 211 203 187 194 184 164 166 165 168 171 169 173 164 149 13 47 150 151 145 140 146 132 120 123
176 169 160 163 171 173 175 179 181 177 173 171 167 176 185 183 179 178 176 170 165 170 177 181 183 186 188 187 190 193 197 200 195 202 215 224 226 207 204 215 187 179 185 171 168 171 171 172 172 178 181 168 10 70 148 156 153 146 141 121 120 128
173 173 168 166 173 177 176 178 183 181 177 177 175 186 192 183 178 169 163 165 167 171 176 179 183 186 187 186 188 190 191 195 194 200 208 216 230 218 201 208 184 180 183 171 180 181 170 171 168 166 174 161 82 130 160 163 157 153 150 137 134 140
177 177 173 172 177 178 176 175 176 174 177 186 191 197 192 178 173 167 164 169 169 172 175 178 181 182 185 184 185 190 190 193 196 198 202 208 220 221 204 182 168 190 184 162 182 189 175 177 167 154 159 148 119 131 175 181 168 154 150 149 153 154
183 178 171 177 182 176 173 173 172 174 178 187 196 196 186 173 170 168 166 169 169 171 171 170 175 178 179 178 182 190 192 194 194 196 202 208 212 211 211 189 165 189 196 167 174 176 174 178 163 152 160 160 163 160 173 201 177 117 187 175 166 156
184 174 169 179 185 178 173 171 174 178 174 183 195 188 176 171 167 163 163 165 164 164 163 160 163 170 173 173 177 185 192 195 193 196 202 205 208 204 212 208 172 185 203 186 169 164 170 170 161 165 166 163 177 172 171 187 153 146 195 219 181 156
181 173 170 179 186 181 175 174 176 173 172 189 196 179 168 167 161 157 160 159 157 155 152 152 154 159 165 168 173 179 188 193 195 201 202 202 207 202 204 203 186 190 194 181 174 179 173 163 164 174 169 164 173 168 170 175 165 167 184 202 192 166
178 174 176 181 186 183 177 176 176 174 182 193 189 169 160 158 154 157 158 155 154 152 146 148 151 151 157 164 169 174 184 191 195 202 200 200 207 205 203 201 199 199 186 176 184 192 167 151 157 174 171 173 179 172 178 173 165 170 175 183 192 175
178 176 181 183 182 181 178 176 176 182 190 187 176 163 156 153 155 155 152 151 149 145 142 143 144 142 147 156 157 164 183 190 194 203 200 194 199 206 205 203 207 205 199 193 189 196 167 144 153 172 169 175 182 181 192 176 164 170 170 178 191 177
179 178 182 180 177 178 178 175 177 183 185 177 169 163 154 153 155 147 141 141 136 133 133 130 130 132 136 148 149 154 179 187 191 199 198 191 191 193 194 200 204 200 208 208 188 193 186 155 165 176 176 183 179 179 193 186 190 186 173 179 188 175
179 182 181 178 176 176 176 175 175 177 175 170 165 159 153 151 147 139 137 136 130 128 126 122 124 128 133 145 154 176 196 189 186 195 197 193 189 187 189 194 192 192 200 203 192 190 188 176 177 175 180 186 175 182 196 188 199 194 181 190 189 173
180 184 182 180 178 175 173 172 172 171 168 166 163 156 149 145 139 135 135 134 132 128 125 127 131 134 139 139 144 194 211 191 180 194 199 195 193 188 190 195 193 194 192 189 192 190 186 195 183 167 178 187 179 185 192 191 197 196 193 197 188 178